Linden, NJ

10:29 PM EDT on March 28, 2017 (GMT -0400)
Linden

Weather History for KLDJ - February, 2013

Change the Weather History Date:

Thursday, February 7, 2013

  Actual Average (KEWR) Record (KEWR)
Temperature  
Mean Temperature 30 °F -  
Max Temperature 35 °F 36 °F 55 °F (1990)
Min Temperature 26 °F 23 °F 5 °F (1993)
Degree Days  
Heating Degree Days 35    
Moisture  
Dew Point 12 °F    
Average Humidity 46    
Maximum Humidity 67    
Minimum Humidity 35    
Precipitation  
Precipitation 0.00 in - - ()
Sea Level Pressure  
Sea Level Pressure 30.44 in    
Wind  
Wind Speed 5 mph (ENE)    
Max Wind Speed 13 mph    
Max Gust Speed -    
Visibility 10 miles    
Events Snow    
Averages and records for this station are not official NWS values.
T = Trace of Precipitation, MM = Missing Value Source: NWS Daily Summary

Daily Weather History Graph

Daily Weather History Graph

Search for Another Location

Airport or City:

Trip Planner

Search our weather history database for the weather conditions in past years. The results will help you decide how hot, cold, wet, or windy it might be!

Date:

Astronomy

Feb. 07, 2013 Rise Set
Actual Time 7:00 AM EST 5:22 PM EST
Civil Twilight 6:31 AM EST 5:51 PM EST
Nautical Twilight 5:59 AM EST 6:23 PM EST
Astronomical Twilight 5:27 AM EST 6:55 PM EST
Moon 4:37 AM EST (2/7) 2:43 PM EST (2/7)
Length of Visible Light 11h 19m
Length of Day
10h 22m
Waning Crescent, 9% of the Moon is Illuminated
Feb 7
Waning Crescent
Feb 10
New
Feb 17
First Quarter
Feb 25
Full
Mar 4
Last Quarter

Hourly Weather History & Observations

Time (EST) Temp. Windchill Dew Point Humidity Pressure Visibility Wind Dir Wind Speed Gust Speed Precip Events Conditions
12:15 AM 30.9 °F 24.3 °F 6.1 °F 35% 30.37 in 10.0 mi North 6.9 mph - N/A   Clear
12:35 AM 30.7 °F 24.1 °F 5.5 °F 35% 30.37 in 10.0 mi North 6.9 mph - N/A   Clear
12:55 AM 30.2 °F 24.3 °F 5.9 °F 36% 30.37 in 10.0 mi North 5.8 mph - N/A   Clear
1:15 AM 30.0 °F - 5.9 °F 36% 30.39 in 10.0 mi Calm Calm - N/A   Clear
1:35 AM 29.7 °F - 5.7 °F 36% 30.39 in 10.0 mi Calm Calm - N/A   Clear
1:55 AM 29.3 °F 21.5 °F 6.1 °F 37% 30.39 in 10.0 mi NNE 8.1 mph - N/A   Clear
2:15 AM 29.3 °F 24.3 °F 5.0 °F 36% 30.39 in 10.0 mi North 4.6 mph - N/A   Clear
2:35 AM 28.8 °F - 5.4 °F 37% 30.39 in 10.0 mi Calm Calm - N/A   Clear
2:55 AM 28.8 °F 25.0 °F 5.4 °F 37% 30.41 in 10.0 mi North 3.5 mph - N/A   Clear
3:15 AM 28.9 °F 25.2 °F 5.0 °F 36% 30.41 in 10.0 mi North 3.5 mph - N/A   Clear
3:35 AM 28.4 °F - 5.7 °F 38% 30.42 in 10.0 mi Calm Calm - N/A   Clear
3:55 AM 27.0 °F 23.0 °F 8.1 °F 45% 30.42 in 10.0 mi NW 3.5 mph - N/A   Clear
4:15 AM 27.3 °F - 7.3 °F 43% 30.42 in 10.0 mi Calm Calm - N/A   Clear
4:35 AM 27.3 °F 23.4 °F 7.0 °F 42% 30.43 in 10.0 mi WNW 3.5 mph - N/A   Clear
4:55 AM 26.2 °F 20.7 °F 9.7 °F 50% 30.44 in 10.0 mi WNW 4.6 mph - N/A   Clear
5:15 AM 26.6 °F 22.6 °F 9.0 °F 47% 30.44 in 10.0 mi NW 3.5 mph - N/A   Clear
5:35 AM 26.4 °F 20.9 °F 9.5 °F 49% 30.44 in 10.0 mi NW 4.6 mph - N/A   Clear
5:55 AM 26.2 °F 22.1 °F 10.2 °F 51% 30.44 in 10.0 mi NW 3.5 mph - N/A   Clear
6:15 AM 27.0 °F 23.0 °F 9.1 °F 47% 30.44 in 10.0 mi NNW 3.5 mph - N/A   Clear
6:55 AM 26.6 °F - 11.1 °F 52% 30.47 in 10.0 mi Calm Calm - N/A   Clear
7:15 AM 27.0 °F 23.0 °F 11.3 °F 52% 30.47 in 10.0 mi NW 3.5 mph - N/A   Clear
7:35 AM 27.3 °F - 11.3 °F 51% 30.49 in 10.0 mi Calm Calm - N/A   Clear
7:55 AM 27.5 °F 23.6 °F 11.3 °F 51% 30.50 in 10.0 mi WNW 3.5 mph - N/A   Clear
8:15 AM 28.0 °F 24.2 °F 11.3 °F 50% 30.50 in 10.0 mi NW 3.5 mph - N/A   Clear
8:35 AM 28.4 °F 23.3 °F 10.2 °F 47% 30.51 in 10.0 mi NW 4.6 mph - N/A   Clear
8:55 AM 29.3 °F 24.3 °F 8.8 °F 42% 30.51 in 10.0 mi NNE 4.6 mph - N/A   Clear
9:15 AM 30.2 °F 26.7 °F 7.7 °F 39% 30.50 in 10.0 mi North 3.5 mph - N/A   Clear
9:35 AM 30.9 °F 26.2 °F 7.7 °F 38% 30.50 in 10.0 mi NNE 4.6 mph - N/A   Clear
9:55 AM 31.1 °F 27.7 °F 7.9 °F 38% 30.50 in 10.0 mi NE 3.5 mph - N/A   Clear
10:15 AM 31.8 °F 28.5 °F 8.4 °F 38% 30.51 in 10.0 mi ENE 3.5 mph - N/A   Clear
10:35 AM 32.0 °F 28.7 °F 8.6 °F 38% 30.52 in 10.0 mi ENE 3.5 mph - N/A   Clear
10:55 AM 32.0 °F 27.5 °F 9.3 °F 39% 30.52 in 10.0 mi East 4.6 mph - N/A   Clear
11:35 AM 32.0 °F 26.4 °F 10.6 °F 41% 30.50 in 10.0 mi East 5.8 mph - N/A   Clear
11:55 AM 32.7 °F 29.6 °F 11.1 °F 41% 30.50 in 10.0 mi East 3.5 mph - N/A   Clear
12:15 PM 32.9 °F - 10.9 °F 40% 30.49 in 10.0 mi Calm Calm - N/A   Clear
12:35 PM 33.3 °F - 10.9 °F 40% 30.49 in 10.0 mi Calm Calm - N/A   Clear
12:55 PM 33.8 °F 27.0 °F 12.0 °F 41% 30.47 in 10.0 mi SSE 8.1 mph - N/A Snow Light Snow
1:15 PM 33.6 °F 28.4 °F 11.8 °F 41% 30.47 in 10.0 mi SSE 5.8 mph - N/A   Scattered Clouds
1:35 PM 33.1 °F 26.9 °F 11.7 °F 41% 30.47 in 10.0 mi SE 6.9 mph - N/A   Mostly Cloudy
1:55 PM 33.3 °F 27.1 °F 11.5 °F 41% 30.46 in 10.0 mi SE 6.9 mph - N/A   Overcast
2:15 PM 33.4 °F 28.1 °F 11.1 °F 40% 30.46 in 10.0 mi SE 5.8 mph - N/A   Scattered Clouds
2:35 PM 33.1 °F 27.7 °F 10.8 °F 40% 30.45 in 10.0 mi SE 5.8 mph - N/A   Mostly Cloudy
2:55 PM 33.3 °F 27.1 °F 10.9 °F 40% 30.44 in 10.0 mi SE 6.9 mph - N/A Snow Light Snow
3:15 PM 33.3 °F 27.1 °F 11.1 °F 40% 30.44 in 10.0 mi SE 6.9 mph - N/A   Scattered Clouds
3:35 PM 33.4 °F 28.1 °F 11.1 °F 40% 30.44 in 10.0 mi SE 5.8 mph - N/A   Clear
4:15 PM 33.3 °F 28.9 °F 12.7 °F 43% 30.43 in 10.0 mi ESE 4.6 mph - N/A   Clear
4:35 PM 33.3 °F 27.1 °F 10.9 °F 40% 30.42 in 10.0 mi SE 6.9 mph - N/A   Scattered Clouds
4:55 PM 33.3 °F 27.9 °F 9.9 °F 38% 30.42 in 10.0 mi ESE 5.8 mph - N/A   Scattered Clouds
5:15 PM 33.1 °F 26.9 °F 9.9 °F 38% 30.42 in 10.0 mi ESE 6.9 mph - N/A   Clear
5:35 PM 33.3 °F 26.4 °F 10.9 °F 40% 30.42 in 10.0 mi ESE 8.1 mph - N/A   Clear
5:55 PM 33.4 °F 26.6 °F 13.8 °F 45% 30.42 in 10.0 mi ESE 8.1 mph - N/A   Clear
6:15 PM 33.3 °F 27.9 °F 16.0 °F 49% 30.41 in 10.0 mi ESE 5.8 mph - N/A   Clear
6:35 PM 33.1 °F 26.9 °F 15.6 °F 49% 30.42 in 10.0 mi East 6.9 mph - N/A   Clear
6:55 PM 32.9 °F 26.7 °F 17.6 °F 53% 30.43 in 10.0 mi East 6.9 mph - N/A   Mostly Cloudy
7:15 PM 33.1 °F 26.1 °F 18.9 °F 56% 30.43 in 10.0 mi East 8.1 mph - N/A   Mostly Cloudy
7:35 PM 33.1 °F 26.1 °F 19.4 °F 57% 30.43 in 10.0 mi East 8.1 mph - N/A   Overcast
7:55 PM 33.1 °F 26.1 °F 20.3 °F 59% 30.42 in 10.0 mi East 8.1 mph - N/A   Overcast
8:35 PM 33.4 °F 26.6 °F 21.2 °F 61% 30.41 in 10.0 mi East 8.1 mph - N/A   Overcast
8:55 PM 33.8 °F 26.4 °F 22.1 °F 62% 30.41 in 10.0 mi East 9.2 mph - N/A   Overcast
9:15 PM 34.0 °F 27.2 °F 22.5 °F 63% 30.40 in 10.0 mi East 8.1 mph - N/A   Overcast
9:35 PM 34.3 °F 27.7 °F 23.0 °F 63% 30.39 in 10.0 mi East 8.1 mph - N/A   Overcast
9:55 PM 34.7 °F 28.1 °F 23.9 °F 65% 30.39 in 10.0 mi ENE 8.1 mph - N/A   Overcast
10:15 PM 34.7 °F 26.4 °F 24.1 °F 65% 30.38 in 10.0 mi ENE 11.5 mph - N/A   Overcast
10:35 PM 34.7 °F 26.9 °F 23.5 °F 64% 30.38 in 10.0 mi ENE 10.4 mph - N/A   Overcast
10:55 PM 34.7 °F 26.9 °F 23.7 °F 64% 30.37 in 10.0 mi ENE 10.4 mph - N/A   Overcast
11:15 PM 34.9 °F 27.1 °F 24.1 °F 65% 30.35 in 10.0 mi East 10.4 mph - N/A   Overcast
11:55 PM 34.9 °F 26.2 °F 24.8 °F 67% 30.33 in 10.0 mi ENE 12.7 mph - N/A   Overcast